TimeCST,TemperatureF,Dew PointF,Humidity,Sea Level PressureIn,VisibilityMPH,Wind Direction,Wind SpeedMPH,Gust SpeedMPH,PrecipitationIn,Events,Conditions,WindDirDegrees,DateUTC
12:15 AM,39.2,32.0,75,30.31,10.0,South,10.4,17.3,N/A,,Clear,180,2012-11-17 06:15:00
12:35 AM,39.2,32.0,75,30.31,10.0,South,6.9,19.6,N/A,,Clear,190,2012-11-17 06:35:00
12:55 AM,41.0,32.0,70,30.30,10.0,South,10.4,-,N/A,,Clear,180,2012-11-17 06:55:00
1:15 AM,41.0,32.0,70,30.30,10.0,South,11.5,20.7,N/A,,Clear,180,2012-11-17 07:15:00
1:35 AM,41.0,32.0,70,30.30,10.0,South,12.7,19.6,N/A,,Clear,180,2012-11-17 07:35:00
1:55 AM,41.0,32.0,70,30.30,10.0,South,11.5,20.7,N/A,,Clear,180,2012-11-17 07:55:00
2:15 AM,41.0,33.8,76,30.29,10.0,South,16.1,21.9,N/A,,Clear,170,2012-11-17 08:15:00
2:35 AM,41.0,33.8,76,30.30,10.0,South,17.3,23.0,N/A,,Clear,170,2012-11-17 08:35:00
2:55 AM,41.0,33.8,76,30.29,10.0,South,16.1,23.0,N/A,,Clear,170,2012-11-17 08:55:00
3:15 AM,41.0,33.8,76,30.29,10.0,South,18.4,25.3,N/A,,Partly Cloudy,170,2012-11-17 09:15:00
3:35 AM,41.0,33.8,76,30.28,10.0,South,16.1,21.9,N/A,,Clear,170,2012-11-17 09:35:00
3:55 AM,41.0,33.8,76,30.28,10.0,South,17.3,25.3,N/A,,Clear,170,2012-11-17 09:55:00
4:15 AM,41.0,33.8,76,30.28,10.0,South,17.3,25.3,N/A,,Clear,170,2012-11-17 10:15:00
4:35 AM,39.2,33.8,81,30.28,10.0,South,13.8,21.9,N/A,,Clear,180,2012-11-17 10:35:00
4:55 AM,39.2,33.8,81,30.28,10.0,South,12.7,21.9,N/A,,Clear,180,2012-11-17 10:55:00
5:15 AM,39.2,33.8,81,30.28,10.0,South,15.0,20.7,N/A,,Clear,180,2012-11-17 11:15:00
5:35 AM,39.2,33.8,81,30.28,10.0,South,13.8,20.7,N/A,,Clear,180,2012-11-17 11:35:00
5:55 AM,39.2,33.8,81,30.28,10.0,South,13.8,21.9,N/A,,Clear,170,2012-11-17 11:55:00
6:15 AM,39.2,33.8,81,30.28,10.0,South,15.0,-,N/A,,Clear,180,2012-11-17 12:15:00
6:35 AM,39.2,33.8,81,30.28,10.0,South,13.8,20.7,N/A,,Clear,180,2012-11-17 12:35:00
6:55 AM,41.0,33.8,76,30.28,10.0,South,13.8,21.9,N/A,,Clear,180,2012-11-17 12:55:00
7:15 AM,39.2,33.8,81,30.28,8.0,South,13.8,-,N/A,,Clear,180,2012-11-17 13:15:00
7:35 AM,39.2,33.8,81,30.28,8.0,South,12.7,19.6,N/A,,Clear,190,2012-11-17 13:35:00
7:55 AM,41.0,33.8,76,30.28,8.0,South,15.0,-,N/A,,Clear,190,2012-11-17 13:55:00
8:15 AM,41.0,33.8,76,30.28,9.0,South,13.8,-,N/A,,Clear,180,2012-11-17 14:15:00
8:35 AM,42.8,33.8,70,30.28,9.0,South,12.7,20.7,N/A,,Clear,180,2012-11-17 14:35:00
8:55 AM,44.6,33.8,66,30.28,9.0,South,12.7,19.6,N/A,,Clear,180,2012-11-17 14:55:00
9:15 AM,46.4,35.6,66,30.28,10.0,South,15.0,20.7,N/A,,Clear,180,2012-11-17 15:15:00
9:35 AM,48.2,35.6,62,30.28,9.0,South,16.1,-,N/A,,Clear,180,2012-11-17 15:35:00
9:55 AM,48.2,35.6,62,30.28,10.0,South,13.8,21.9,N/A,,Clear,190,2012-11-17 15:55:00
10:15 AM,51.8,35.6,54,30.28,9.0,South,18.4,26.5,N/A,,Clear,190,2012-11-17 16:15:00
10:35 AM,51.8,33.8,50,30.27,9.0,South,21.9,28.8,N/A,,Clear,190,2012-11-17 16:35:00
11:55 AM,57.2,33.8,41,30.24,9.0,South,18.4,31.1,N/A,,Mostly Cloudy,180,2012-11-17 17:55:00
12:15 PM,57.2,33.8,41,30.23,10.0,South,20.7,32.2,N/A,,Mostly Cloudy,180,2012-11-17 18:15:00
12:35 PM,57.2,32.0,38,30.22,10.0,South,21.9,31.1,N/A,,Clear,190,2012-11-17 18:35:00
12:55 PM,57.2,32.0,38,30.20,10.0,South,23.0,31.1,N/A,,Clear,190,2012-11-17 18:55:00
1:15 PM,59.0,32.0,36,30.19,10.0,South,21.9,29.9,N/A,,Clear,180,2012-11-17 19:15:00
1:35 PM,59.0,32.0,36,30.18,10.0,South,19.6,31.1,N/A,,Clear,170,2012-11-17 19:35:00
1:55 PM,57.2,32.0,38,30.18,10.0,South,17.3,28.8,N/A,,Clear,180,2012-11-17 19:55:00
2:15 PM,59.0,32.0,36,30.17,10.0,South,18.4,36.8,N/A,,Clear,180,2012-11-17 20:15:00
2:35 PM,59.0,32.0,36,30.16,10.0,South,23.0,33.4,N/A,,Clear,170,2012-11-17 20:35:00
2:55 PM,57.2,32.0,38,30.16,10.0,South,26.5,35.7,N/A,,Partly Cloudy,170,2012-11-17 20:55:00
3:15 PM,57.2,33.8,41,30.16,10.0,South,23.0,-,N/A,,Partly Cloudy,180,2012-11-17 21:15:00
3:55 PM,57.2,32.0,38,30.17,10.0,South,18.4,32.2,N/A,,Clear,170,2012-11-17 21:55:00
4:15 PM,57.2,32.0,38,30.17,10.0,South,19.6,26.5,N/A,,Clear,170,2012-11-17 22:15:00
4:35 PM,55.4,32.0,41,30.17,10.0,South,16.1,26.5,N/A,,Scattered Clouds,170,2012-11-17 22:35:00
4:55 PM,55.4,32.0,41,30.17,10.0,SSE,16.1,-,N/A,,Overcast,160,2012-11-17 22:55:00
5:15 PM,55.4,32.0,41,30.16,10.0,SSE,15.0,26.5,N/A,,Overcast,160,2012-11-17 23:15:00
5:35 PM,53.6,32.0,44,30.16,10.0,SSE,16.1,21.9,N/A,,Overcast,160,2012-11-17 23:35:00
5:55 PM,53.6,32.0,44,30.16,10.0,SSE,12.7,23.0,N/A,,Overcast,160,2012-11-17 23:55:00
6:15 PM,53.6,32.0,44,30.17,10.0,SSE,12.7,19.6,N/A,,Overcast,160,2012-11-18 00:15:00
6:35 PM,53.6,32.0,44,30.17,10.0,SSE,16.1,-,N/A,,Mostly Cloudy,160,2012-11-18 00:35:00
6:55 PM,51.8,32.0,47,30.17,10.0,South,16.1,26.5,N/A,,Scattered Clouds,170,2012-11-18 00:55:00
7:15 PM,51.8,32.0,47,30.18,10.0,South,17.3,25.3,N/A,,Scattered Clouds,170,2012-11-18 01:15:00
7:35 PM,51.8,32.0,47,30.18,10.0,South,16.1,25.3,N/A,,Mostly Cloudy,170,2012-11-18 01:35:00
7:55 PM,50.0,32.0,50,30.18,10.0,SSE,16.1,-,N/A,,Mostly Cloudy,160,2012-11-18 01:55:00
8:15 PM,50.0,32.0,50,30.18,-9999.0,SSE,16.1,21.9,N/A,,Overcast,160,2012-11-18 02:15:00
8:35 PM,50.0,32.0,50,30.18,10.0,SSE,15.0,21.9,N/A,,Overcast,160,2012-11-18 02:35:00
8:55 PM,48.2,30.2,50,30.19,10.0,SSE,15.0,20.7,N/A,,Mostly Cloudy,160,2012-11-18 02:55:00
9:15 PM,48.2,30.2,50,30.18,10.0,SSE,13.8,20.7,N/A,,Mostly Cloudy,160,2012-11-18 03:15:00
9:35 PM,46.4,30.2,53,30.18,10.0,SSE,15.0,-,N/A,,Overcast,160,2012-11-18 03:35:00
9:55 PM,46.4,32.0,57,30.18,10.0,SSE,11.5,19.6,N/A,,Overcast,160,2012-11-18 03:55:00
10:15 PM,48.2,32.0,54,30.18,10.0,SSE,13.8,19.6,N/A,,Overcast,160,2012-11-18 04:15:00
10:35 PM,48.2,32.0,54,30.18,10.0,South,15.0,20.7,N/A,,Overcast,170,2012-11-18 04:35:00
10:55 PM,48.2,32.0,54,30.18,10.0,South,15.0,20.7,N/A,,Overcast,170,2012-11-18 04:55:00
11:15 PM,48.2,32.0,54,30.18,10.0,South,12.7,20.7,N/A,,Overcast,180,2012-11-18 05:15:00
11:35 PM,50.0,30.2,47,30.18,10.0,South,13.8,21.9,N/A,,Overcast,180,2012-11-18 05:35:00
11:55 PM,50.0,30.2,47,30.18,10.0,South,15.0,25.3,N/A,,Overcast,180,2012-11-18 05:55:00